| time (UTC) | temp F | wind direction | speed MPH | gust MPH | rain 1hr in | rain 24hr in | rain mn in | humidity % | barometer mb |
| 20260508004718 | 58 | 0 | 0.0 | 0.0 | 0.00 | 0.02 | 0.00 | 99 | 1013.9 |
| 20260508003817 | 59 | 0 | 0.0 | 0.0 | 0.00 | 0.02 | 0.00 | 99 | 1014.1 |
| 20260508002703 | 59 | 0 | 0.0 | 0.0 | 0.00 | 0.02 | 0.00 | 99 | 1014.2 |
| 20260508001803 | 59 | 0 | 0.0 | 0.0 | 0.00 | 0.02 | 0.00 | 99 | 1014.3 |
| 20260508000903 | 59 | 0 | 0.0 | 0.0 | 0.00 | 0.02 | 0.00 | 99 | 1014.4 |
| 20260508000004 | 59 | 0 | 0.0 | 0.0 | 0.00 | 0.02 | 0.00 | 99 | 1014.4 |
| 20260507235403 | 60 | 0 | 0.0 | 0.0 | 0.00 | 0.02 | 0.00 | 99 | 1014.5 |
| 20260507234503 | 60 | 0 | 0.0 | 0.0 | 0.00 | 0.02 | 0.00 | 99 | 1014.8 |
| 20260507233603 | 59 | 0 | 0.0 | 0.0 | 0.00 | 0.02 | 0.00 | 99 | 1014.8 |
| 20260507232703 | 59 | 0 | 0.0 | 0.0 | 0.00 | 0.02 | 0.00 | 99 | 1014.7 |
| 20260507231803 | 59 | 0 | 0.0 | 0.0 | 0.00 | 0.02 | 0.00 | 99 | 1014.7 |
| 20260507230903 | 59 | 0 | 0.0 | 0.0 | 0.00 | 0.03 | 0.00 | 99 | 1014.9 |
| 20260507230003 | 59 | 0 | 0.0 | 0.0 | 0.00 | 0.03 | 0.00 | 99 | 1014.9 |
| 20260507225404 | 59 | 0 | 0.0 | 0.0 | 0.00 | 0.04 | 0.00 | 99 | 1015.1 |
| 20260507224717 | 59 | 0 | 0.0 | 0.0 | 0.00 | 0.04 | 0.00 | 99 | 1015.3 |
| 20260507223603 | 59 | 0 | 0.0 | 0.0 | 0.00 | 0.05 | 0.00 | 99 | 1015.5 |
| 20260507222703 | 59 | 0 | 0.0 | 0.0 | 0.00 | 0.05 | 0.00 | 99 | 1015.6 |
| 20260507221803 | 58 | 0 | 0.0 | 0.0 | 0.00 | 0.06 | 0.00 | 99 | 1015.5 |
| 20260507220903 | 59 | 0 | 0.0 | 0.0 | 0.00 | 0.06 | 0.00 | 99 | 1015.0 |
| 20260507220004 | 59 | 0 | 0.0 | 0.0 | 0.00 | 0.06 | 0.00 | 99 | 1015.1 |
| 20260507215403 | 58 | 0 | 0.0 | 0.0 | 0.00 | 0.06 | 0.06 | 99 | 1015.3 |
| 20260507214503 | 58 | 0 | 0.0 | 0.0 | 0.00 | 0.06 | 0.06 | 99 | 1015.3 |
| 20260507213603 | 59 | 0 | 0.0 | 0.0 | 0.00 | 0.06 | 0.06 | 99 | 1015.2 |
| 20260507212917 | 59 | 0 | 0.0 | 0.0 | 0.00 | 0.06 | 0.06 | 99 | 1015.3 |
| 20260507211803 | 60 | 0 | 0.0 | 0.0 | 0.00 | 0.06 | 0.06 | 99 | 1015.3 |
| 20260507210903 | 60 | 0 | 0.0 | 0.0 | 0.00 | 0.06 | 0.06 | 99 | 1015.3 |
| 20260507210003 | 60 | 0 | 0.0 | 0.0 | 0.00 | 0.06 | 0.06 | 99 | 1015.1 |
| 20260507205617 | 60 | 0 | 0.0 | 0.0 | 0.00 | 0.06 | 0.06 | 99 | 1015.2 |
| 20260507204503 | 60 | 0 | 0.0 | 0.0 | 0.00 | 0.06 | 0.06 | 99 | 1015.7 |
| 20260507203603 | 60 | 0 | 0.0 | 0.0 | 0.00 | 0.06 | 0.06 | 99 | 1015.5 |
| 20260507202703 | 60 | 0 | 0.0 | 0.0 | 0.00 | 0.06 | 0.06 | 99 | 1015.3 |
| 20260507201804 | 60 | 0 | 0.0 | 0.0 | 0.00 | 0.06 | 0.06 | 99 | 1015.6 |
| 20260507200903 | 60 | 0 | 0.0 | 0.0 | 0.00 | 0.06 | 0.06 | 99 | 1015.7 |
| 20260507200003 | 60 | 0 | 0.0 | 0.0 | 0.00 | 0.06 | 0.06 | 99 | 1015.8 |
| 20260507195403 | 60 | 0 | 0.0 | 0.0 | 0.00 | 0.06 | 0.06 | 99 | 1015.7 |
| 20260507194718 | 60 | 0 | 0.0 | 0.0 | 0.00 | 0.06 | 0.06 | 99 | 1015.6 |
| 20260507193603 | 60 | 0 | 0.0 | 0.0 | 0.00 | 0.06 | 0.06 | 99 | 1015.7 |
| 20260507192703 | 60 | 0 | 0.0 | 0.0 | 0.00 | 0.06 | 0.06 | 99 | 1015.5 |
| 20260507191803 | 60 | 0 | 0.0 | 0.0 | 0.00 | 0.06 | 0.06 | 99 | 1015.3 |
| 20260507190903 | 60 | 0 | 0.0 | 0.0 | 0.00 | 0.06 | 0.06 | 99 | 1015.2 |
| 20260507190004 | 60 | 0 | 0.0 | 0.0 | 0.00 | 0.06 | 0.06 | 99 | 1015.3 |
| 20260507185403 | 61 | 0 | 0.0 | 0.0 | 0.00 | 0.06 | 0.06 | 99 | 1015.1 |
| 20260507184503 | 60 | 0 | 0.0 | 0.0 | 0.00 | 0.06 | 0.06 | 99 | 1015.5 |
| 20260507183817 | 61 | 0 | 0.0 | 0.0 | 0.00 | 0.06 | 0.06 | 99 | 1015.2 |
| 20260507182703 | 60 | 0 | 0.0 | 0.0 | 0.00 | 0.06 | 0.06 | 99 | 1015.2 |
| 20260507181803 | 60 | 0 | 0.0 | 0.0 | 0.00 | 0.06 | 0.06 | 99 | 1015.3 |
| 20260507180904 | 61 | 0 | 0.0 | 0.0 | 0.00 | 0.06 | 0.06 | 99 | 1015.3 |
| 20260507180003 | 61 | 0 | 0.0 | 0.0 | 0.00 | 0.06 | 0.06 | 99 | 1015.3 |
| 20260507175618 | 61 | 0 | 0.0 | 0.0 | 0.00 | 0.06 | 0.06 | 99 | 1015.5 |
| 20260507174503 | 60 | 0 | 0.0 | 0.0 | 0.00 | 0.06 | 0.06 | 99 | 1015.6 |
| 20260507173603 | 61 | 0 | 0.0 | 0.0 | 0.00 | 0.06 | 0.06 | 99 | 1015.2 |
| 20260507172703 | 61 | 0 | 0.0 | 0.0 | 0.00 | 0.06 | 0.06 | 99 | 1015.2 |
| 20260507171803 | 61 | 0 | 0.0 | 0.0 | 0.00 | 0.06 | 0.06 | 99 | 1015.5 |
| 20260507170903 | 61 | 0 | 0.0 | 0.0 | 0.00 | 0.06 | 0.06 | 99 | 1015.1 |
| 20260507170003 | 61 | 0 | 0.0 | 0.0 | 0.00 | 0.06 | 0.06 | 99 | 1015.0 |
| 20260507165403 | 62 | 0 | 0.0 | 0.0 | 0.00 | 0.06 | 0.06 | 99 | 1015.3 |
| 20260507164503 | 62 | 0 | 0.0 | 0.0 | 0.00 | 0.06 | 0.06 | 99 | 1015.5 |
| 20260507163603 | 62 | 0 | 0.0 | 0.0 | 0.00 | 0.06 | 0.06 | 99 | 1015.6 |
| 20260507162703 | 62 | 0 | 0.0 | 0.0 | 0.00 | 0.06 | 0.06 | 99 | 1015.2 |
| 20260507161803 | 62 | 0 | 0.0 | 0.0 | 0.00 | 0.06 | 0.06 | 99 | 1015.2 |
| 20260507161116 | 64 | 0 | 0.0 | 0.0 | 0.00 | 0.06 | 0.06 | 99 | 1015.5 |
| 20260507160003 | 68 | 0 | 0.0 | 0.0 | 0.00 | 0.06 | 0.06 | 99 | 1015.6 |
| 20260507155403 | 68 | 0 | 0.0 | 0.0 | 0.00 | 0.06 | 0.06 | 99 | 1015.6 |
| 20260507154503 | 69 | 0 | 0.0 | 0.0 | 0.00 | 0.06 | 0.06 | 99 | 1015.7 |
| 20260507153603 | 69 | 0 | 0.0 | 0.0 | 0.00 | 0.06 | 0.06 | 99 | 1015.9 |
| 20260507152704 | 69 | 0 | 0.0 | 0.0 | 0.00 | 0.06 | 0.06 | 99 | 1015.8 |
| 20260507151803 | 69 | 0 | 0.0 | 0.0 | 0.00 | 0.06 | 0.06 | 99 | 1015.9 |
| 20260507150903 | 70 | 0 | 0.0 | 0.0 | 0.00 | 0.06 | 0.06 | 99 | 1016.5 |
| 20260507150004 | 68 | 0 | 0.0 | 0.0 | 0.00 | 0.06 | 0.06 | 99 | 1016.6 |
| 20260507145403 | 67 | 0 | 0.0 | 0.0 | 0.00 | 0.06 | 0.06 | 99 | 1017.7 |
| 20260507144503 | 68 | 0 | 0.0 | 0.0 | 0.00 | 0.06 | 0.06 | 99 | 1018.3 |
| 20260507143603 | 69 | 0 | 0.0 | 0.0 | 0.00 | 0.06 | 0.06 | 99 | 1018.4 |
| 20260507142703 | 68 | 0 | 0.0 | 0.0 | 0.00 | 0.06 | 0.06 | 99 | 1018.7 |
| 20260507141803 | 68 | 0 | 0.0 | 0.0 | 0.00 | 0.06 | 0.06 | 99 | 1019.3 |
| 20260507140903 | 67 | 0 | 0.0 | 0.0 | 0.00 | 0.06 | 0.06 | 99 | 1018.9 |
| 20260507140004 | 67 | 0 | 0.0 | 0.0 | 0.00 | 0.06 | 0.06 | 99 | 1018.5 |
| 20260507135618 | 66 | 0 | 0.0 | 0.0 | 0.00 | 0.06 | 0.06 | 99 | 1018.8 |
| 20260507134503 | 67 | 0 | 0.0 | 0.0 | 0.00 | 0.06 | 0.06 | 99 | 1018.7 |
| 20260507133603 | 66 | 0 | 0.0 | 0.0 | 0.00 | 0.06 | 0.06 | 99 | 1018.8 |
| 20260507132703 | 66 | 0 | 0.0 | 0.0 | 0.00 | 0.06 | 0.06 | 99 | 1019.5 |
| 20260507131803 | 67 | 0 | 0.0 | 0.0 | 0.00 | 0.06 | 0.06 | 99 | 1019.9 |
| 20260507130903 | 66 | 0 | 0.0 | 0.0 | 0.00 | 0.06 | 0.06 | 99 | 1020.0 |
| 20260507130003 | 67 | 0 | 0.0 | 0.0 | 0.00 | 0.06 | 0.06 | 99 | 1020.1 |
| 20260507125618 | 67 | 0 | 0.0 | 0.0 | 0.00 | 0.06 | 0.06 | 99 | 1020.0 |
| 20260507124503 | 66 | 0 | 0.0 | 0.0 | 0.00 | 0.06 | 0.06 | 99 | 1019.6 |
| 20260507123603 | 65 | 0 | 0.0 | 0.0 | 0.00 | 0.06 | 0.06 | 99 | 1019.4 |
| 20260507122705 | 65 | 0 | 0.0 | 0.0 | 0.00 | 0.06 | 0.06 | 99 | 1019.1 |
| 20260507122017 | 65 | 0 | 0.0 | 0.0 | 0.00 | 0.06 | 0.06 | 99 | 1018.5 |
| 20260507120903 | 65 | 0 | 0.0 | 0.0 | 0.00 | 0.06 | 0.06 | 99 | 1018.7 |
| 20260507120004 | 65 | 0 | 0.0 | 0.0 | 0.00 | 0.06 | 0.06 | 99 | 1018.9 |
| 20260507115618 | 65 | 0 | 0.0 | 0.0 | 0.00 | 0.06 | 0.06 | 99 | 1018.7 |
| 20260507114503 | 65 | 0 | 0.0 | 0.0 | 0.00 | 0.06 | 0.06 | 99 | 1018.9 |
| 20260507113603 | 64 | 0 | 0.0 | 0.0 | 0.00 | 0.06 | 0.06 | 99 | 1019.1 |
| 20260507112918 | 65 | 0 | 0.0 | 0.0 | 0.00 | 0.06 | 0.06 | 99 | 1019.3 |
| 20260507111804 | 65 | 0 | 0.0 | 0.0 | 0.00 | 0.06 | 0.06 | 99 | 1019.1 |
| 20260507110903 | 64 | 0 | 0.0 | 0.0 | 0.00 | 0.06 | 0.06 | 99 | 1019.3 |
| 20260507110003 | 64 | 0 | 0.0 | 0.0 | 0.00 | 0.06 | 0.06 | 99 | 1019.1 |
| 20260507105403 | 64 | 0 | 0.0 | 0.0 | 0.00 | 0.06 | 0.06 | 99 | 1018.9 |
| 20260507104503 | 64 | 0 | 0.0 | 0.0 | 0.00 | 0.06 | 0.06 | 99 | 1019.1 |
| 20260507103603 | 63 | 0 | 0.0 | 0.0 | 0.00 | 0.06 | 0.06 | 99 | 1018.7 |
| 20260507102703 | 63 | 0 | 0.0 | 0.0 | 0.00 | 0.06 | 0.06 | 99 | 1019.4 |
| 20260507101803 | 64 | 0 | 0.0 | 0.0 | 0.00 | 0.06 | 0.06 | 99 | 1019.5 |
| 20260507100903 | 65 | 0 | 0.0 | 0.0 | 0.00 | 0.06 | 0.06 | 99 | 1019.6 |
| 20260507100005 | 66 | 0 | 0.0 | 0.0 | 0.00 | 0.06 | 0.06 | 99 | 1020.1 |
| 20260507095403 | 64 | 0 | 0.0 | 0.0 | 0.00 | 0.06 | 0.06 | 99 | 1019.9 |
| 20260507094503 | 63 | 0 | 0.0 | 0.0 | 0.00 | 0.06 | 0.06 | 99 | 1019.9 |
| 20260507093603 | 63 | 0 | 0.0 | 0.0 | 0.00 | 0.06 | 0.06 | 99 | 1019.9 |
| 20260507092703 | 63 | 0 | 0.0 | 0.0 | 0.00 | 0.06 | 0.06 | 99 | 1019.2 |
| 20260507091803 | 63 | 0 | 0.0 | 0.0 | 0.00 | 0.06 | 0.06 | 99 | 1019.8 |
| 20260507090903 | 60 | 0 | 0.0 | 0.0 | 0.00 | 0.06 | 0.06 | 99 | 1019.5 |
| 20260507090005 | 60 | 0 | 0.0 | 0.0 | 0.00 | 0.06 | 0.06 | 99 | 1019.7 |
| 20260507085403 | 60 | 0 | 0.0 | 0.0 | 0.00 | 0.06 | 0.06 | 99 | 1019.5 |
| 20260507084718 | 60 | 0 | 0.0 | 0.0 | 0.00 | 0.06 | 0.06 | 99 | 1020.0 |
| 20260507083603 | 60 | 0 | 0.0 | 0.0 | 0.00 | 0.06 | 0.06 | 99 | 1019.5 |
| 20260507082703 | 59 | 0 | 0.0 | 0.0 | 0.00 | 0.06 | 0.06 | 99 | 1018.3 |
| 20260507081804 | 58 | 0 | 0.0 | 0.0 | 0.00 | 0.06 | 0.06 | 99 | 1017.8 |
| 20260507081117 | 59 | 0 | 0.0 | 0.0 | 0.00 | 0.06 | 0.06 | 99 | 1017.7 |
| 20260507080003 | 58 | 0 | 0.0 | 0.0 | 0.00 | 0.06 | 0.06 | 99 | 1017.6 |
| 20260507075403 | 58 | 0 | 0.0 | 0.0 | 0.00 | 0.06 | 0.06 | 99 | 1017.7 |
| 20260507074503 | 58 | 0 | 0.0 | 0.0 | 0.00 | 0.06 | 0.06 | 99 | 1017.8 |
| 20260507073603 | 57 | 0 | 0.0 | 0.0 | 0.00 | 0.06 | 0.06 | 99 | 1018.0 |
| 20260507072703 | 59 | 0 | 0.0 | 0.0 | 0.00 | 0.06 | 0.06 | 99 | 1018.7 |
| 20260507071803 | 60 | 0 | 0.0 | 0.0 | 0.00 | 0.06 | 0.06 | 99 | 1019.6 |
| 20260507070903 | 60 | 0 | 0.0 | 0.0 | 0.00 | 0.06 | 0.06 | 99 | 1019.3 |
| 20260507070005 | 58 | 0 | 0.0 | 0.0 | 0.00 | 0.06 | 0.06 | 99 | 1019.3 |
| 20260507065618 | 56 | 0 | 0.0 | 0.0 | 0.00 | 0.06 | 0.06 | 99 | 1018.8 |
| 20260507064503 | 56 | 0 | 0.0 | 0.0 | 0.00 | 0.06 | 0.06 | 99 | 1018.8 |
| 20260507063603 | 56 | 0 | 0.0 | 0.0 | 0.00 | 0.06 | 0.06 | 99 | 1018.2 |
| 20260507062703 | 55 | 0 | 0.0 | 0.0 | 0.00 | 0.06 | 0.06 | 99 | 1017.7 |
| 20260507061803 | 55 | 0 | 0.0 | 0.0 | 0.00 | 0.06 | 0.06 | 99 | 1017.9 |
| 20260507060903 | 56 | 0 | 0.0 | 0.0 | 0.00 | 0.06 | 0.06 | 99 | 1017.9 |
| 20260507060003 | 56 | 0 | 0.0 | 0.0 | 0.00 | 0.06 | 0.06 | 99 | 1017.5 |
| 20260507055403 | 56 | 0 | 0.0 | 0.0 | 0.00 | 0.06 | 0.06 | 99 | 1017.1 |
| 20260507054717 | 56 | 0 | 0.0 | 0.0 | 0.00 | 0.06 | 0.06 | 99 | 1016.7 |
| 20260507053603 | 56 | 0 | 0.0 | 0.0 | 0.00 | 0.06 | 0.06 | 99 | 1016.7 |
| 20260507052703 | 55 | 0 | 0.0 | 0.0 | 0.00 | 0.06 | 0.06 | 99 | 1016.5 |
| 20260507051803 | 55 | 0 | 0.0 | 0.0 | 0.00 | 0.06 | 0.06 | 99 | 1016.5 |
| 20260507050903 | 54 | 0 | 0.0 | 0.0 | 0.00 | 0.06 | 0.06 | 99 | 1016.3 |
| 20260507050003 | 53 | 0 | 0.0 | 0.0 | 0.00 | 0.06 | 0.06 | 99 | 1016.0 |
| 20260507045403 | 53 | 0 | 0.0 | 0.0 | 0.00 | 0.06 | 0.06 | 99 | 1015.8 |
| 20260507044503 | 52 | 0 | 0.0 | 0.0 | 0.00 | 0.06 | 0.06 | 99 | 1015.7 |
| 20260507043603 | 52 | 0 | 0.0 | 0.0 | 0.00 | 0.06 | 0.06 | 99 | 1015.6 |
| 20260507042703 | 52 | 0 | 0.0 | 0.0 | 0.00 | 0.06 | 0.06 | 99 | 1015.7 |
| 20260507041803 | 52 | 0 | 0.0 | 0.0 | 0.00 | 0.06 | 0.06 | 99 | 1015.3 |
| 20260507040903 | 52 | 0 | 0.0 | 0.0 | 0.00 | 0.06 | 0.06 | 99 | 1015.5 |
| 20260507040003 | 52 | 0 | 0.0 | 0.0 | 0.00 | 0.06 | 0.06 | 99 | 1015.2 |
| 20260507035403 | 52 | 0 | 0.0 | 0.0 | 0.00 | 0.06 | 0.06 | 99 | 1015.3 |
| 20260507034503 | 52 | 0 | 0.0 | 0.0 | 0.00 | 0.07 | 0.06 | 99 | 1015.2 |
| 20260507033603 | 52 | 0 | 0.0 | 0.0 | 0.00 | 0.07 | 0.06 | 99 | 1015.5 |
| 20260507032703 | 52 | 0 | 0.0 | 0.0 | 0.00 | 0.07 | 0.06 | 99 | 1015.1 |
| 20260507031803 | 53 | 0 | 0.0 | 0.0 | 0.00 | 0.07 | 0.06 | 99 | 1015.1 |
| 20260507030903 | 53 | 0 | 0.0 | 0.0 | 0.01 | 0.07 | 0.06 | 99 | 1015.0 |
| 20260507030003 | 53 | 0 | 0.0 | 0.0 | 0.01 | 0.07 | 0.06 | 99 | 1015.1 |
| 20260507025618 | 53 | 0 | 0.0 | 0.0 | 0.01 | 0.07 | 0.06 | 99 | 1015.2 |
| 20260507024503 | 53 | 0 | 0.0 | 0.0 | 0.01 | 0.07 | 0.06 | 99 | 1015.2 |
| 20260507023603 | 53 | 0 | 0.0 | 0.0 | 0.01 | 0.07 | 0.06 | 99 | 1015.6 |
| 20260507022703 | 53 | 0 | 0.0 | 0.0 | 0.01 | 0.07 | 0.06 | 99 | 1015.2 |
| 20260507021803 | 53 | 0 | 0.0 | 0.0 | 0.01 | 0.07 | 0.06 | 99 | 1015.3 |
| 20260507020903 | 53 | 0 | 0.0 | 0.0 | 0.01 | 0.06 | 0.05 | 99 | 1015.2 |
| 20260507020217 | 53 | 0 | 0.0 | 0.0 | 0.01 | 0.06 | 0.05 | 99 | 1015.2 |
| 20260507015403 | 53 | 0 | 0.0 | 0.0 | 0.01 | 0.06 | 0.05 | 99 | 1015.3 |
| 20260507014503 | 53 | 0 | 0.0 | 0.0 | 0.01 | 0.06 | 0.05 | 99 | 1014.9 |
| 20260507013603 | 53 | 0 | 0.0 | 0.0 | 0.01 | 0.06 | 0.05 | 99 | 1015.1 |
| 20260507012703 | 53 | 0 | 0.0 | 0.0 | 0.01 | 0.06 | 0.05 | 99 | 1014.9 |
| 20260507011803 | 53 | 0 | 0.0 | 0.0 | 0.01 | 0.06 | 0.05 | 99 | 1015.0 |
| 20260507010003 | 54 | 0 | 0.0 | 0.0 | 0.00 | 0.05 | 0.04 | 99 | 1015.1 |
| 20260507005403 | 54 | 0 | 0.0 | 0.0 | 0.00 | 0.05 | 0.04 | 99 | 1015.2 |